Location: Newark
(41.0400°S, 62.7845°W)
Time: 07:59:38
(UTC+00:00)

Transit 2A - Pass Details

Date: 07 December 2021
Orbit: 591 x 967 km, 66.7° (Epoch: 19 January)

Event Time Altitude Azimuth Distance (km) Brightness Sun altitude
Rises 01:34:36 0° 225° (SW) 2,871 10.6 -17.7°
Reaches altitude 10° 01:37:15 10° 241° (WSW) 1,981 9.1 -18.0°
Maximum altitude 01:40:33 21° 290° (WNW) 1,433 7.6 -18.3°
Enters shadow 01:43:12 13° 331° (NNW) 1,841 7.7 -18.6°
Drops below altitude 10° 01:43:58 10° 338° (NNW) 2,060 - -18.7°
Sets 01:46:48 0° 353° (N) 3,023 - -19.0°
